This is the latest recevied weather packets stored in our database for station/object KM4CNW. If no packets are shown the sender has not sent any weather packets the latest 10 day(s).
| Time | Temp. | Humidity | Pressure | Rain* | Wind** | Luminosity | Snow |
|---|---|---|---|---|---|---|---|
| 1777937633 | 23.33° C | 27% | 1007.4 hPa | 0 mm | - | 23 W/m² | - |
| 1777937330 | 23.33° C | 27% | 1007.5 hPa | 0 mm | - | 25 W/m² | - |
| 1777937028 | 23.89° C | 27% | 1007.5 hPa | 0 mm | - | 28 W/m² | - |
| 1777936724 | 23.89° C | 28% | 1007.6 hPa | 0 mm | - | 31 W/m² | - |
| 1777936421 | 23.89° C | 27% | 1007.5 hPa | 0 mm | - | 33 W/m² | - |
| 1777936117 | 23.89° C | 26% | 1007.5 hPa | 0 mm | - | 37 W/m² | - |
| 1777935815 | 24.44° C | 27% | 1007.4 hPa | 0 mm | - | 37 W/m² | - |
| 1777935513 | 24.44° C | 26% | 1007.5 hPa | 0 mm | - | 36 W/m² | - |
| 1777935209 | 24.44° C | 25% | 1007.4 hPa | 0 mm | - | 38 W/m² | - |
| 1777934907 | 25° C | 25% | 1007.5 hPa | 0 mm | - | 42 W/m² | - |
| 1777934604 | 25.56° C | 25% | 1007.5 hPa | 0 mm | - | 123 W/m² | - |
| 1777934301 | 25.56° C | 26% | 1007.5 hPa | 0 mm | - | 151 W/m² | - |
| 1777933996 | 25.56° C | 25% | 1007.5 hPa | 0 mm | - | 171 W/m² | - |
| 1777933693 | 25.56° C | 26% | 1007.6 hPa | 0 mm | - | 175 W/m² | - |
| 1777933390 | 25.56° C | 26% | 1007.5 hPa | 0 mm | - | 206 W/m² | - |
| 1777933088 | 25.56° C | 26% | 1007.5 hPa | 0 mm | - | 216 W/m² | - |
| 1777932784 | 26.11° C | 26% | 1007.7 hPa | 0 mm | - | 240 W/m² | - |
| 1777932481 | 26.11° C | 26% | 1007.5 hPa | 0 mm | - | 256 W/m² | - |
| 1777932178 | 26.11° C | 26% | 1007.6 hPa | 0 mm | - | 275 W/m² | - |
| 1777931876 | 26.67° C | 26% | 1007.3 hPa | 0 mm | - | 293 W/m² | - |
| 1777931572 | 26.67° C | 26% | 1007.6 hPa | 0 mm | - | 310 W/m² | - |
| 1777931268 | 26.67° C | 26% | 1007.6 hPa | 0 mm | - | 325 W/m² | - |
| 1777930964 | 26.67° C | 26% | 1007.5 hPa | 0 mm | - | 344 W/m² | - |
| 1777930661 | 26.11° C | 26% | 1007.5 hPa | 0 mm | - | 366 W/m² | - |
| 1777930358 | 26.67° C | 25% | 1007.4 hPa | 0 mm | - | 385 W/m² | - |
* Rain latest hour (hover to see other rain measurements)
** Current wind speed in m/s (hover to see current wind gust speed)